Regional Weather Roundup
Issued by NWS New Orleans/Baton Rouge, LA

Home | Current Version | Previous Version | Text Only | Print | Product List | Glossary Off
Versions: 1 2 3 4 5 6 7 8 9 10 11 12 13 14 15 16 17 18 19 20 21 22 23 24 25 26 27 28 29 30 31 32 33 34 35 36 37 38 39 40 41 42 43 44 45 46 47 48 49 50

873
ASUS44 KLIX 272011
RWRLIX
NEW ORLEANS REGIONAL WEATHER ROUNDUP
NATIONAL WEATHER SERVICE NEW ORLEANS LA
300 PM CDT FRI MAR 27 2015

NOTE: "FAIR" INDICATES FEW OR NO CLOUDS BELOW 12,000 FEET WITH NO
      SIGNIFICANT WEATHER AND/OR OBSTRUCTIONS TO VISIBILITY.
      SKY/WX - SKY CONDITION AND SIGNIFICANT WEATHER.
      TMP - AIR TEMPERATURE.     DP    - DEWPOINT TEMPERATURE.
      RH  - RELATIVE HUMIDITY.   PRES  - PRESSURE.
      HI  - HEAT INDEX.          WCI   - WIND CHILL INDEX.

*  THESE STATIONS ARE NOT NWS OR FAA STATIONS AND ARE NOT UNDER
   NWS QUALITY CONTROL.

LAZ038-040-048-061>063-065>067-069-272100-
SOUTHEAST LOUISIANA

CITY           SKY/WX    TMP DP  RH WIND       PRES   REMARKS
N.O. AUDUBON   NOT AVBL
N.O. INTL ARPT MOSUNNY   67  36  31 NW15G21   30.04F
N.O. LAKEFRONT SUNNY     67  38  34 W12       30.04F
SLIDELL        SUNNY     69  34  27 NW9       30.01F
BATON ROUGE    SUNNY     67  36  31 W14G23    30.05F
BOOTHVILLE     SUNNY     64  41  42 NW15      30.04F
BELLE CHASSE   MOSUNNY   66  31  27 NW12G20   30.03F
BOGALUSA*        N/A     69  31  24 NW12G17   30.03F
GALLIANO*      CLEAR     70  35  27 NW7       30.05F
NEW ROADS*       N/A     65  42  41 NW6       30.06F
GONZALES*        N/A     68  34  28 NW16G22   30.04F
HAMMOND*       SUNNY     72  32  23 NW15      30.04F
HOUMA*         SUNNY     70  36  28 NW12      30.06S
PORT FOURCHON* CLEAR     66  36  32 NW14G20   30.09S

$$

MSZ070-080>082-272100-
SOUTHERN MISSISSIPPI

CITY           SKY/WX    TMP DP  RH WIND       PRES   REMARKS
MCCOMB         SUNNY     66  34  30 NW16      30.02F
GULFPORT       SUNNY     69  31  24 NW8       29.99S
BILOXI         SUNNY     69  32  25 N16       29.98F
PASCAGOULA     SUNNY     68  32  26 N7G18     29.97F
STENNIS ARPT*  SUNNY     68  21  17 NW9       30.01S

$$

COASTAL OBSERVATIONS
LAKE AND NEARSHORE STATIONS

STATION/POSITION TIME  TEMP    WIND        PRES    WAVE
                       AIR SEA DIR/SP/G            HT/PER
                 (UTC) (F)     (DEG/KT/KT) (MB)    (FT/S)
PASCAGOULA       1900   66     330/ 11/ 14 1014.9
WAVELAND YACHT   1900   63 67  330/ 12/ 18 1015.9
GRAND ISLE       1900          330/ 12/ 19   N/A
SOUTHWEST PASS   1900          340/ 12/ 15   N/A
NEW CANAL        1900   63     280/  4/  7 1017.8
SHELL BEACH      1900   61 69  300/ 14/ 17 1017.1

OFFSHORE STATIONS

STATION/POSITION TIME  TEMP    WIND        PRES    WAVE
                       AIR SEA DIR/SP/G            HT/PER
                 (UTC) (F)     (DEG/KT/KT) (MB)    (FT/S)
64 S DAUPHIN ISL 1950   61 71  320/ 19/ 23 1015.8    4/ 6

$$




USA.gov is the U.S. government's official web portal to all federal, state and local government web resources and services.